Voltar ao catálogo

SCOUT B DEB

LostUNKNOWN
NORAD 29169·DEBRIS·🇺🇸 United States

Lançado Aug 10, 1965 de Wallops Flight Facility

Loading…

Próximas Passagens (próximas 24 horas)

TLE

ObsoletoSource: Space-Track

Época: May 7, 2014, 20:50 UTC

1 29169U 65063T   14127.86869336 -.00000001  00000-0  21508-3 0  9992
2 29169  69.1437 297.1969 0771871  17.5660  45.7607 11.83228801379785

Acompanhe SCOUT B DEB em tempo real com AllMySat

Download on the App Store